GFSNW_sfc_rhum_150.txt.gz
RH
79 81 83 86 87 96 93 98 100 97 99 98 98 95 54 52 35 26 23 21 22 24 23 24 22 23 19 15 18 23 19 22 24 20 13 12 15 22 33 61 52 43 48 37
80 80 81 85 87 93 97 100 100 96 97 100 94 62 56 44 38 30 26 26 24 25 27 31 25 23 20 16 21 23 22 25 30 19 18 19 24 18 20 43 53 60 58 30
76 79 80 82 85 92 96 100 99 100 100 96 97 74 71 57 37 30 21 24 24 27 29 28 32 28 26 21 21 49 36 22 25 27 21 23 34 21 19 33 53 38 37 28
77 79 80 79 82 92 96 100 95 76 95 97 90 78 93 58 40 30 22 27 28 30 38 31 29 32 34 27 39 27 28 36 24 20 17 17 22 23 19 24 27 39 27 24
77 79 78 79 81 91 99 100 97 68 58 65 78 81 91 80 36 28 31 29 25 27 35 39 41 36 39 38 33 35 33 49 46 48 20 16 21 17 19 20 19 18 19 24
80 78 78 80 78 89 99 98 94 66 74 75 80 88 65 66 40 31 25 39 43 38 30 28 27 31 35 31 41 52 45 44 45 46 25 25 33 23 20 20 25 40 46 33
81 80 78 78 78 86 97 96 96 97 96 64 67 55 57 64 55 58 47 46 44 30 26 31 34 36 36 30 33 39 43 48 50 49 42 51 30 23 25 29 28 29 29 29
82 81 81 80 79 88 96 89 94 95 93 52 50 51 56 65 72 77 49 35 28 32 33 46 44 45 40 34 30 33 35 46 55 60 47 32 37 35 34 34 34 29 33 36
83 81 82 80 79 84 94 95 96 93 98 72 44 56 65 88 93 50 40 32 37 41 44 51 50 64 47 52 44 33 34 43 65 59 57 59 54 35 30 36 53 35 41 46
82 81 81 82 78 80 91 98 94 98 99 67 50 62 80 48 45 49 46 46 49 42 56 73 47 42 29 48 63 70 57 66 79 66 71 52 40 34 33 57 76 54 53 54
81 80 81 82 80 83 89 99 97 99 97 67 55 46 60 51 43 56 52 48 46 50 61 68 41 45 40 44 42 78 72 75 72 66 72 71 34 40 53 70 59 57 60 62
79 79 80 82 81 81 83 98 97 96 94 81 72 58 49 47 35 42 49 45 52 60 73 59 48 55 54 41 63 49 81 87 77 71 65 52 40 64 62 56 64 64 63 61
81 81 81 81 81 86 90 97 98 93 95 93 62 57 45 33 35 40 49 45 35 38 39 56 47 52 39 65 46 64 52 54 99 75 61 49 59 54 53 54 60 55 50 47
82 82 81 81 82 87 85 93 95 86 82 99 85 44 45 33 34 38 37 40 36 44 44 52 56 55 34 41 38 52 68 48 66 70 58 52 54 54 56 59 59 53 46 45
83 82 83 82 86 82 85 92 93 74 72 88 76 47 37 33 34 38 40 47 51 44 60 82 54 32 34 33 32 70 39 52 75 74 76 80 60 69 59 67 61 53 46 43
82 82 84 87 83 82 90 100 93 74 45 71 91 49 42 37 37 41 41 43 43 40 41 41 41 38 49 63 37 22 23 28 36 46 49 57 62 57 55 61 52 45 40 39
88 88 85 83 82 86 88 76 63 49 45 87 83 79 48 41 37 40 42 42 37 41 48 51 38 33 48 65 36 25 23 28 32 42 47 56 49 53 47 49 47 39 34 35
82 82 84 83 82 76 63 55 66 64 46 52 98 78 60 38 50 52 39 44 48 50 43 45 52 44 50 55 35 30 28 35 41 43 46 46 45 44 42 39 35 36 36 38
83 84 80 65 54 76 55 64 68 65 61 89 96 80 80 47 46 46 46 45 83 46 77 50 48 52 59 39 35 33 40 49 50 44 43 44 46 41 38 35 36 39 39 40
82 66 98 100 69 70 65 56 86 98 81 69 80 48 77 56 64 75 82 78 79 84 64 41 61 67 42 38 35 36 37 43 44 53 54 50 48 47 42 39 40 42 43 45
73 95 78 56 69 59 66 100 98 88 94 58 53 53 62 50 79 83 65 92 76 76 59 61 56 68 57 41 43 44 43 46 50 50 49 44 47 45 46 47 48 50 52 60
56 50 53 50 54 79 92 94 77 58 56 51 62 56 52 59 55 77 78 73 88 72 51 76 66 72 49 47 50 52 51 48 44 44 50 55 53 52 55 54 52 59 68 83
54 68 95 77 87 87 89 79 72 78 63 62 63 79 66 64 64 89 91 89 76 53 78 60 69 57 48 49 50 53 52 56 53 48 47 49 53 52 53 63 68 70 84 87
87 100 81 97 89 80 94 65 71 78 66 64 63 76 71 73 88 85 84 70 61 72 74 58 69 53 50 53 56 54 51 60 69 53 53 59 64 75 89 92 92 91 90 93
98 77 85 87 87 89 93 86 74 66 61 60 68 68 71 83 96 68 71 87 74 60 63 82 70 58 59 62 59 54 61 80 82 87 90 90 89 89 90 90 88 86 91 89
82 88 89 88 94 100 100 98 94 66 69 62 58 82 98 90 79 81 72 62 60 73 86 78 62 63 65 64 64 78 84 85 89 91 90 90 91 90 88 88 89 90 89 90
91 95 100 95 100 100 100 100 100 84 84 96 73 93 78 63 67 63 50 90 92 87 85 75 64 68 85 90 89 89 86 89 88 89 88 88 87 89 87 91 84 88 87 90

GFSNW_sfc_rhum_156.txt.gz
RH
83 82 80 82 84 83 90 99 100 97 96 100 100 99 78 66 64 54 59 60 57 66 50 37 33 35 28 24 26 25 28 40 43 28 23 20 28 38 46 70 54 84 80 58
80 83 82 82 82 81 98 100 100 97 100 99 99 84 73 66 60 56 60 66 49 46 66 43 31 33 36 27 29 33 29 43 51 32 31 31 32 30 45 65 79 72 82 68
76 80 83 83 83 80 96 100 99 100 100 100 93 88 83 82 58 63 61 77 77 73 54 45 50 42 43 45 45 58 44 41 36 34 36 41 40 30 50 57 83 64 69 56
76 77 82 83 82 80 95 100 99 90 98 99 98 94 92 80 83 68 55 62 68 90 83 57 66 49 45 41 49 42 44 43 38 36 30 33 30 34 33 49 50 62 48 43
75 77 81 82 81 83 96 100 100 97 93 77 93 89 81 85 72 59 81 69 59 50 71 78 80 53 52 46 44 47 48 69 52 53 42 38 41 33 34 33 36 43 43 51
76 77 82 84 81 84 98 99 96 98 89 89 91 86 78 84 77 66 55 76 73 67 53 47 45 42 46 47 50 56 53 64 61 52 43 42 46 44 29 31 34 41 53 56
74 78 80 84 84 82 98 97 96 100 98 84 86 72 84 86 84 83 82 81 62 52 43 44 42 44 47 46 55 55 62 61 72 72 59 64 42 32 26 38 44 42 48 48
76 79 81 83 84 83 97 98 98 100 99 85 76 74 73 74 77 77 75 82 63 51 65 83 82 79 61 56 55 51 52 67 79 82 75 53 43 44 44 45 67 61 51 54
76 78 80 79 83 84 96 94 96 98 100 98 66 77 70 82 81 95 86 66 74 64 86 90 94 93 74 67 63 48 55 65 77 85 76 79 59 54 44 39 80 75 60 69
74 75 78 81 77 86 96 96 91 94 99 94 91 99 85 78 81 96 89 79 76 58 92 97 95 86 56 68 81 80 80 89 87 93 93 82 56 44 42 60 76 81 79 84
73 72 72 76 78 79 93 96 96 93 99 95 92 90 96 92 82 88 82 83 82 81 87 93 77 83 72 74 66 79 81 85 92 91 94 92 49 49 59 76 82 83 85 85
76 73 73 75 82 80 81 96 98 95 98 98 96 92 90 84 67 75 68 74 73 82 89 91 87 83 82 75 88 72 77 80 86 81 84 81 83 78 80 78 82 84 81 76
79 75 75 75 80 83 80 98 99 96 99 98 99 93 90 78 63 53 74 70 59 65 66 85 80 64 76 94 93 77 78 73 90 81 90 89 86 81 77 75 79 75 70 60
80 79 77 76 81 84 78 97 99 96 96 100 97 87 87 71 75 51 50 54 57 67 74 81 87 78 62 77 77 78 82 74 88 89 90 82 80 80 78 76 72 60 56 55
82 82 81 78 82 83 88 98 97 95 98 100 100 91 76 64 62 52 49 55 68 71 73 89 81 63 58 61 75 91 76 82 87 89 84 87 87 87 77 75 70 60 51 55
80 83 81 81 82 81 93 99 92 92 95 100 99 95 88 71 57 60 62 60 65 71 71 77 71 61 63 81 58 57 57 65 72 85 77 81 81 76 69 69 57 52 53 56
81 83 81 83 84 93 95 96 93 94 96 100 99 99 80 65 59 67 68 71 76 70 81 76 64 52 75 83 66 64 74 74 74 70 72 82 73 80 56 53 51 53 54 56
83 83 83 84 83 82 91 97 87 86 94 90 98 97 78 59 70 67 72 78 77 80 74 77 66 73 81 80 60 68 67 69 72 70 68 72 67 57 49 47 50 57 62 60
84 83 84 90 94 98 99 90 90 93 87 97 98 96 90 65 81 78 79 81 91 85 93 73 76 82 81 62 66 66 64 68 70 62 59 59 61 56 53 53 54 62 67 64
84 88 99 100 97 89 92 93 98 99 90 93 91 87 91 77 90 98 94 97 96 91 80 74 92 90 66 55 55 61 65 61 60 70 72 64 61 60 62 62 62 65 70 71
94 100 100 96 84 95 99 99 98 96 91 85 80 67 77 72 88 96 90 96 95 91 80 84 96 95 77 72 75 72 66 63 62 58 54 50 58 62 67 72 74 74 74 70
87 90 90 94 96 100 94 98 95 86 88 86 77 76 79 88 84 91 91 91 94 91 84 91 94 93 79 73 73 71 71 69 70 65 69 64 61 65 72 77 78 74 75 88
69 82 94 95 95 93 78 99 96 96 88 83 77 85 88 86 91 98 94 92 94 82 93 85 90 85 73 71 72 75 72 69 72 74 72 73 76 73 74 79 80 85 93 96
91 87 91 90 97 90 96 85 84 90 79 72 71 97 94 98 94 97 85 91 84 94 98 92 96 82 76 73 72 73 75 78 83 79 78 79 82 91 95 94 94 93 95 98
91 86 98 97 94 99 98 98 88 76 68 78 92 94 93 99 97 93 88 89 94 90 91 96 92 81 79 81 78 76 79 86 89 91 93 94 92 94 99 97 95 93 96 98
92 93 98 99 96 95 93 87 86 82 96 92 92 98 95 98 92 93 89 89 91 90 98 95 84 84 85 83 78 82 88 89 92 92 92 95 96 95 96 98 96 97 96 98
92 98 99 99 99 99 100 99 98 98 90 98 95 90 86 93 96 92 95 90 94 100 98 87 80 84 87 89 91 92 91 92 92 95 93 95 97 96 94 97 99 97 97 97

GFSNW_sfc_rhum_159.txt.gz
RH
84 81 81 81 80 79 86 98 100 97 98 99 100 99 95 79 67 55 62 67 62 66 56 42 40 39 29 26 28 23 32 43 42 29 26 22 28 37 50 69 57 86 79 40
82 82 81 79 81 80 99 100 100 96 99 98 99 82 82 66 72 66 70 66 64 67 71 74 50 42 39 29 29 33 32 42 50 34 34 33 31 37 46 66 73 74 79 49
78 77 80 80 82 81 95 100 100 100 100 98 96 89 91 89 66 68 65 87 68 84 71 68 64 46 45 45 39 60 37 45 37 36 38 43 36 33 51 46 73 44 58 60
75 77 78 77 81 80 95 100 99 91 98 99 96 87 81 86 93 62 59 65 88 90 98 74 79 59 47 40 47 43 38 40 38 39 32 30 34 34 54 49 37 50 36 53
76 75 78 82 80 82 99 100 99 99 96 75 93 85 81 79 68 67 79 76 61 87 98 97 99 69 60 46 41 46 46 64 48 46 44 40 40 37 36 42 46 49 46 48
74 75 78 83 83 82 100 99 95 98 90 90 93 82 76 69 73 71 61 68 92 93 79 76 76 78 77 56 54 58 54 60 52 44 45 40 39 47 38 37 46 50 58 50
73 75 79 84 83 82 98 99 98 99 96 91 81 74 74 76 71 75 70 66 77 74 54 48 55 61 64 63 56 57 60 61 62 66 54 56 44 38 31 41 55 46 52 58
70 75 79 83 83 84 97 98 98 100 99 89 80 79 79 72 73 78 79 86 76 64 76 96 90 89 74 58 49 48 48 66 78 76 68 52 41 43 43 45 60 74 63 71
73 76 79 81 82 83 96 95 93 99 97 87 94 85 78 88 85 83 83 84 88 85 97 99 96 92 85 72 64 53 60 65 76 87 73 78 56 52 47 46 78 74 64 76
74 74 80 81 80 83 94 97 92 97 100 89 88 98 93 76 82 88 89 90 96 90 100 99 95 93 65 75 80 82 81 85 80 89 88 78 60 48 43 60 74 78 76 79
72 76 80 81 79 79 94 97 96 95 99 89 83 88 97 95 75 90 88 91 93 100 99 98 97 90 76 75 70 81 82 88 93 91 95 90 55 50 59 76 89 84 84 82
71 72 75 76 75 74 90 99 95 94 98 95 92 86 86 87 92 97 80 80 91 95 96 95 87 84 84 76 86 73 78 82 86 80 83 77 85 72 83 82 86 86 84 84
74 74 74 75 73 70 86 97 97 97 99 96 99 90 80 86 94 90 98 89 71 76 69 84 83 69 77 88 88 76 79 73 91 85 90 94 92 84 80 75 81 79 75 62
76 79 79 77 74 74 79 98 99 96 95 100 93 85 87 80 90 91 83 69 70 72 72 84 83 80 68 84 76 76 85 74 86 98 95 86 85 83 81 77 70 63 59 58
78 77 79 77 75 76 86 96 98 97 95 100 99 92 86 89 95 84 63 69 70 71 76 90 82 66 65 73 77 92 81 79 89 94 88 87 88 87 74 69 67 59 59 66
87 86 82 78 77 78 95 100 94 97 96 100 99 98 97 93 91 81 68 68 80 77 78 83 79 67 64 80 69 56 66 69 68 76 78 83 82 77 70 69 60 57 60 66
89 83 80 79 80 92 98 92 91 90 94 100 99 99 97 91 72 79 74 71 75 68 79 76 62 64 75 82 66 73 76 82 78 75 76 83 75 84 59 59 58 60 62 68
80 80 82 81 83 84 95 97 90 84 96 97 99 98 99 81 76 72 80 76 77 82 78 72 67 76 79 78 72 84 80 76 74 76 75 75 70 58 57 58 59 63 65 68
81 84 83 89 94 99 96 93 92 91 95 99 99 96 98 68 82 80 80 79 91 85 91 72 74 81 73 67 84 84 78 78 79 76 69 64 61 57 58 59 61 62 65 66
84 89 99 100 98 89 89 94 99 98 96 95 94 88 92 79 91 97 95 95 95 89 84 84 93 92 72 65 67 70 74 68 67 78 78 70 65 63 62 61 62 61 64 67
91 100 100 97 87 95 99 99 99 99 99 94 85 80 84 80 88 96 92 96 94 91 83 88 96 94 80 74 76 76 69 65 66 65 65 59 60 63 67 70 71 71 70 67
92 94 93 93 97 100 98 99 97 94 93 88 82 77 88 90 82 90 92 92 93 88 87 90 99 90 88 83 83 81 79 76 70 63 64 64 60 63 69 73 75 72 73 88
79 84 96 93 98 97 90 100 98 98 90 90 88 89 88 87 91 97 93 92 96 82 93 84 86 92 83 81 80 79 76 74 71 71 68 69 74 71 71 76 80 84 90 94
89 87 98 88 97 90 82 84 86 89 87 75 75 97 91 98 93 97 85 92 85 93 98 88 97 88 81 79 75 73 78 79 82 76 73 74 79 91 94 92 91 91 95 100
90 82 88 96 93 99 99 99 93 84 70 76 91 91 92 99 97 93 88 92 96 90 90 94 95 83 79 82 76 78 81 88 90 89 92 94 94 93 98 97 95 93 96 96
91 94 97 98 98 98 97 93 89 85 89 89 86 95 94 99 94 93 89 92 94 90 96 98 88 83 82 81 79 85 89 91 93 93 92 94 94 93 95 97 94 95 94 97
92 98 99 99 99 99 100 90 96 99 87 97 92 87 69 92 97 97 92 92 94 98 100 93 83 83 88 90 92 92 91 91 92 95 93 98 97 95 95 99 100 97 98 98

GFSNW_sfc_rhum_162.txt.gz
RH
77 81 79 80 78 82 88 98 100 95 99 100 100 99 89 72 77 59 65 71 76 66 59 47 49 53 36 27 28 25 32 42 40 28 26 24 30 39 51 67 58 83 82 42
80 82 80 79 80 83 99 100 99 98 99 98 98 89 77 66 65 70 65 83 73 76 82 80 58 47 43 30 26 31 31 49 50 34 34 34 29 34 48 62 68 64 72 41
78 80 78 80 82 86 98 100 99 100 100 97 99 81 93 94 81 76 71 88 78 82 87 78 87 62 46 46 34 55 38 53 36 41 38 41 34 37 47 40 66 46 45 34
76 79 81 83 80 83 96 100 99 90 98 98 91 98 81 83 74 69 65 79 90 97 97 98 98 62 47 41 47 46 45 58 43 37 32 32 32 34 48 35 26 41 30 41
84 84 77 81 80 81 99 100 100 98 97 86 97 89 92 96 80 78 78 80 66 85 97 97 99 97 75 64 44 49 54 74 50 48 43 39 36 39 51 41 44 42 46 44
79 78 79 81 81 82 99 100 97 95 85 95 94 87 77 70 76 73 67 76 85 84 81 74 70 70 73 72 75 68 69 71 53 43 44 39 39 44 39 43 50 47 52 38
75 78 79 82 83 81 98 99 99 99 97 93 84 76 74 78 75 77 74 75 78 71 67 65 70 86 89 86 80 62 69 63 66 63 50 59 46 41 34 40 39 47 49 60
75 78 80 81 83 79 97 99 100 100 99 86 85 87 83 77 71 77 80 68 81 78 81 94 96 95 95 98 95 76 61 66 88 91 71 56 47 42 45 41 42 65 63 78
75 78 77 79 78 80 94 95 96 100 99 96 85 91 81 92 90 90 78 82 91 83 97 98 96 93 84 92 95 77 87 98 83 89 87 90 58 50 48 44 60 70 72 76
72 74 75 75 77 77 93 97 91 97 99 98 92 96 91 78 83 90 84 87 98 87 100 98 98 97 78 80 81 84 75 86 74 73 89 77 58 49 41 56 69 76 72 76
74 75 76 76 79 79 90 96 94 95 99 89 75 77 91 94 99 97 87 97 99 100 99 98 97 96 87 79 71 85 83 85 86 86 96 93 56 51 58 70 89 85 85 87
70 73 76 78 74 78 86 99 94 95 99 94 92 82 82 81 89 99 99 93 98 94 98 99 92 93 96 90 92 70 80 83 85 80 82 74 85 69 83 82 83 84 86 88
71 70 69 76 78 77 87 97 95 97 99 97 98 92 88 81 86 84 99 94 82 93 88 92 92 72 73 87 80 75 73 72 89 82 88 92 92 88 83 80 84 82 80 68
70 71 73 73 70 69 81 98 93 97 98 99 90 88 97 85 85 93 87 90 91 82 85 87 90 86 69 73 69 76 82 75 87 90 96 90 90 89 86 85 78 69 64 60
72 71 73 71 70 69 86 98 97 95 100 99 98 93 83 86 93 89 84 96 97 99 93 95 86 76 75 77 74 91 80 81 89 89 86 86 89 89 79 76 71 64 66 72
77 74 79 80 76 75 96 100 95 93 97 100 99 93 93 88 92 91 94 97 97 100 100 94 80 67 67 88 79 60 72 72 67 72 79 85 85 78 69 68 65 63 67 68
78 77 76 76 78 91 97 98 92 88 97 100 99 99 97 93 96 97 97 95 96 95 97 80 71 69 70 78 64 66 71 78 82 79 78 87 79 81 62 63 67 70 71 71
82 79 84 82 79 80 93 90 92 86 96 98 99 96 99 97 100 100 95 99 88 84 84 76 71 74 78 73 80 90 86 84 81 84 79 76 68 62 64 63 64 69 71 74
80 87 82 90 93 98 92 87 96 92 94 99 99 98 98 95 98 93 90 83 92 83 92 70 70 74 66 59 94 89 83 83 89 80 70 65 67 67 64 63 63 67 71 72
87 89 99 100 97 83 90 97 100 100 100 99 98 99 98 89 90 97 93 92 89 88 84 78 90 83 72 72 84 81 83 78 72 80 79 70 69 66 65 61 61 61 65 69
92 99 95 97 89 95 99 99 99 98 98 98 92 97 88 86 91 96 88 96 93 89 81 86 92 86 76 84 87 82 75 72 72 69 66 61 62 64 65 67 64 64 65 68
88 95 93 95 98 100 98 98 98 98 90 94 90 84 86 88 86 87 94 94 92 81 85 89 96 90 86 84 84 83 81 77 78 72 70 68 61 62 66 68 69 69 72 87
94 92 98 99 99 98 96 97 95 100 92 93 94 94 90 85 87 95 93 91 96 87 93 78 78 86 89 86 83 84 77 73 71 70 68 68 71 69 68 74 78 84 91 93
94 90 97 91 98 92 87 86 89 89 90 86 82 96 90 98 95 96 86 94 87 93 95 81 91 92 86 84 79 76 79 77 80 74 71 74 77 89 92 92 90 90 92 96
90 83 83 97 92 98 99 98 94 91 82 83 88 90 91 96 95 94 91 93 97 90 90 93 97 87 83 84 78 81 82 88 88 86 89 92 91 91 97 96 94 92 94 95
93 94 96 98 96 94 98 98 96 93 94 85 84 90 90 91 94 92 91 92 92 89 96 97 93 88 85 83 82 90 91 91 93 93 92 93 92 92 95 96 96 96 94 95
93 98 99 99 99 99 98 98 99 98 90 96 91 82 69 90 98 98 88 93 94 98 98 99 90 86 92 93 92 93 91 92 92 95 94 98 96 94 94 96 100 96 97 95

GFSNW_sfc_rhum_168.txt.gz
RH
70 70 73 78 80 83 89 92 100 90 86 99 99 95 64 63 52 36 53 48 48 47 42 45 50 49 36 26 26 36 34 42 49 32 17 16 17 23 26 46 44 38 42 30
71 73 72 77 81 84 83 100 100 79 98 100 99 64 57 57 52 52 45 58 47 44 52 62 48 40 31 27 27 32 32 44 59 48 38 30 23 20 22 32 39 38 50 32
66 69 74 78 82 81 91 100 99 100 98 99 83 68 57 53 46 62 71 58 45 51 57 50 57 44 43 40 39 64 43 42 44 50 35 36 42 30 26 30 43 30 31 27
67 69 72 76 80 84 93 100 99 61 97 97 99 63 52 52 48 45 57 92 72 70 67 52 54 49 54 60 68 56 63 68 45 42 39 38 54 35 25 28 25 51 48 48
70 72 76 77 80 84 97 100 99 99 58 46 93 96 95 52 40 39 50 71 74 62 87 86 97 75 87 91 87 91 89 98 76 83 57 51 55 51 44 39 27 26 27 23
71 72 78 78 79 82 96 97 97 88 69 69 64 74 63 58 47 41 33 42 70 67 54 52 52 58 63 74 86 95 97 95 96 86 51 54 85 70 45 41 38 38 34 23
73 76 78 80 78 84 96 97 91 99 92 71 67 55 49 55 44 59 43 46 67 54 46 50 52 58 68 75 90 87 99 93 95 85 70 92 40 28 35 34 25 22 21 19
74 76 77 79 80 80 99 98 100 100 91 76 63 79 72 66 58 61 60 57 61 72 78 86 87 80 74 78 66 91 89 97 95 86 81 52 43 36 36 39 38 28 27 23
76 77 77 79 82 83 97 98 96 100 100 89 64 64 64 75 62 55 56 46 50 59 92 96 80 60 37 37 74 64 92 78 82 92 86 77 37 30 27 26 44 27 26 29
79 77 78 79 77 80 94 97 91 98 99 74 73 78 74 57 55 51 45 47 62 67 96 96 78 51 29 40 71 94 96 97 97 90 88 64 35 30 25 46 52 34 32 36
73 70 75 77 77 73 88 93 90 96 94 72 66 63 78 88 75 63 74 80 70 77 86 79 59 55 39 46 37 87 92 90 88 94 98 87 34 33 42 45 50 47 46 51
72 70 73 75 76 72 77 86 80 84 90 79 69 56 50 52 55 64 68 88 96 88 75 63 51 70 92 47 56 47 93 92 80 65 59 57 37 44 47 45 51 53 54 54
75 70 70 68 69 73 72 76 84 90 100 99 93 67 57 51 53 51 71 71 71 90 96 99 72 64 42 70 58 56 52 49 93 67 50 48 55 57 52 51 52 48 50 46
74 69 67 65 66 74 72 79 90 92 92 99 68 53 61 46 54 57 57 48 63 74 96 100 97 81 46 44 41 53 59 56 57 69 56 63 62 60 58 55 50 49 44 43
69 68 68 65 67 77 80 80 75 72 79 93 90 77 58 56 58 60 62 68 70 88 88 91 79 53 62 49 54 61 48 54 75 82 72 76 55 63 58 58 53 47 46 46
71 68 68 66 72 82 95 98 71 68 72 85 85 58 65 65 67 66 65 74 83 91 90 80 64 53 57 67 51 35 32 39 50 68 59 51 58 59 50 49 48 44 44 44
73 70 71 70 75 79 75 77 98 83 78 100 94 85 76 68 71 81 86 82 92 97 100 100 82 62 59 71 62 37 37 42 66 66 62 70 56 56 47 47 45 46 40 40
72 71 72 78 79 78 80 60 90 92 98 93 99 83 94 89 99 100 97 99 99 100 99 98 86 72 69 76 49 44 48 55 61 59 51 48 46 48 46 44 43 46 46 46
71 71 77 84 93 96 64 73 83 87 88 99 94 83 83 99 99 99 100 99 99 99 97 89 95 88 87 57 45 52 62 63 59 56 50 49 50 48 48 45 44 46 48 46
72 82 100 100 88 75 80 83 95 100 98 99 98 84 90 97 98 100 100 99 96 94 82 88 94 75 57 48 44 47 55 55 57 63 59 54 54 53 49 46 43 46 46 47
94 100 98 74 75 82 95 100 100 100 99 97 86 73 70 98 98 96 89 98 88 94 82 89 87 76 58 46 59 54 54 54 51 41 44 42 49 50 48 47 47 47 48 49
82 82 79 76 75 96 100 95 93 87 84 76 86 94 98 99 98 98 88 85 86 64 69 96 71 47 40 54 61 62 59 54 51 46 48 49 47 47 47 48 48 48 49 67
76 86 86 92 95 97 93 85 82 85 71 78 85 100 97 91 87 94 93 96 78 63 83 56 40 55 54 56 60 61 56 55 52 51 51 50 49 47 48 49 50 66 78 84
93 98 98 90 92 82 67 57 53 66 71 69 71 88 91 77 84 84 91 83 73 80 79 57 59 60 64 63 62 60 59 63 77 56 53 54 55 62 80 83 85 87 89 88
94 81 77 94 78 78 84 84 78 69 66 64 69 69 71 83 94 77 79 98 86 67 64 74 75 65 65 65 62 58 64 82 86 89 83 85 88 86 88 87 82 81 89 88
85 90 99 90 96 100 99 95 97 72 70 62 58 77 96 84 79 83 76 65 60 72 80 82 74 70 68 66 64 78 91 96 96 90 88 87 88 88 87 87 87 86 85 87
95 98 95 96 97 100 100 98 86 70 74 95 70 89 71 72 73 67 62 82 81 86 85 85 77 71 79 91 91 92 90 90 90 89 85 88 89 89 84 87 88 84 84 82

GFSNW_sfc_rhum_171.txt.gz
RH
64 67 69 72 76 78 78 84 100 63 80 99 99 98 54 45 33 29 36 44 43 36 36 39 56 71 44 34 32 34 32 42 50 31 20 16 18 23 28 53 40 39 42 30
67 67 68 70 75 78 73 97 100 69 92 100 98 63 50 43 35 34 36 42 44 40 38 55 68 56 52 42 50 41 39 71 86 49 35 23 25 22 22 31 44 46 62 39
67 66 68 70 76 77 86 100 100 98 98 96 99 82 50 44 33 36 33 42 51 54 51 45 50 40 33 39 41 68 60 62 75 56 33 33 52 32 24 27 44 37 37 34
67 66 67 72 75 81 75 100 96 52 96 92 81 68 63 61 47 31 33 45 66 67 64 53 56 47 41 49 71 59 59 87 57 40 29 27 25 36 35 31 25 37 31 29
72 70 72 75 77 80 91 99 93 66 50 43 48 70 69 58 49 58 37 44 39 49 65 69 76 49 51 53 67 70 79 100 93 90 58 49 46 35 30 35 33 26 31 40
72 74 75 77 78 78 80 78 69 91 70 49 50 48 46 55 76 69 46 38 42 38 35 38 57 71 67 73 88 95 98 94 97 84 49 52 95 77 50 42 38 38 38 27
71 75 78 78 79 77 66 70 64 96 82 58 45 34 30 33 35 61 48 35 46 32 32 40 45 65 71 87 89 66 95 89 96 85 61 94 40 23 26 35 34 33 33 31
72 77 78 78 81 80 86 88 93 88 90 48 43 42 49 33 38 41 41 37 33 36 54 63 67 72 71 75 68 79 78 80 89 86 80 56 50 33 32 34 34 26 32 29
76 78 80 80 81 82 93 95 87 96 97 78 46 71 43 69 57 56 46 38 46 53 70 73 76 65 52 55 41 34 56 77 80 66 73 78 40 23 25 27 46 25 26 28
76 76 78 81 82 81 88 98 95 98 99 65 68 91 72 60 51 62 51 50 62 54 96 98 77 55 36 54 53 88 80 99 95 78 78 49 24 18 24 47 45 28 24 26
77 72 74 75 80 79 92 97 94 99 100 72 82 68 90 69 67 68 45 65 64 82 91 80 72 77 48 52 34 54 84 87 80 79 93 80 24 25 43 43 36 36 30 29
78 73 74 75 74 77 80 99 91 93 100 77 75 65 58 45 47 66 73 77 61 82 92 68 55 66 62 44 47 24 66 80 75 54 50 35 35 36 32 39 40 41 40 41
74 74 71 72 71 70 73 82 96 96 99 78 63 55 48 43 43 42 65 58 46 63 64 73 80 71 34 62 54 60 47 49 82 61 44 35 37 38 42 38 40 39 40 45
76 77 72 70 68 68 70 81 82 84 80 96 56 36 46 36 42 45 48 50 54 57 72 88 79 83 49 46 34 55 72 72 65 59 45 38 36 40 40 42 42 42 41 40
75 74 70 67 65 70 65 85 72 64 86 93 68 50 45 44 45 45 46 55 60 92 88 98 76 57 52 44 44 57 34 39 71 70 49 66 48 54 49 57 57 48 43 42
77 72 69 67 69 74 84 95 61 68 75 90 81 40 45 42 48 51 52 57 72 88 97 75 59 43 73 81 52 28 23 24 30 39 46 60 66 67 71 68 48 41 40 40
76 74 73 70 77 58 86 86 97 81 71 95 84 63 44 42 51 65 60 57 74 85 98 93 62 50 66 67 58 30 25 20 25 52 66 79 72 70 50 44 40 43 37 36
73 71 73 76 74 75 69 77 83 90 96 83 96 71 88 66 79 92 83 93 86 98 97 96 82 56 65 72 37 30 26 25 39 61 63 66 63 64 57 42 41 41 40 40
71 70 69 70 79 84 53 75 81 82 80 94 99 77 86 87 94 93 100 99 100 98 99 93 78 69 83 49 36 33 32 39 52 57 58 60 61 55 45 42 40 42 43 42
71 67 95 100 95 75 70 68 92 98 89 84 83 72 83 91 96 99 99 99 98 97 74 58 94 67 43 36 35 36 38 46 49 61 63 61 54 49 46 40 38 41 42 44
71 98 97 86 77 72 76 99 99 90 99 96 66 57 66 74 85 81 92 99 97 92 84 83 71 60 46 37 36 38 37 43 45 46 46 41 45 46 45 42 44 45 46 46
63 72 83 73 76 86 94 93 84 96 74 75 75 71 71 88 95 96 95 93 94 90 69 93 74 48 38 39 42 46 48 49 49 42 40 40 42 43 43 46 47 47 46 65
61 96 100 88 86 95 94 81 73 85 84 82 90 100 99 98 99 100 100 100 90 52 76 66 44 48 34 39 50 51 46 48 43 39 38 42 45 44 48 50 49 61 78 81
77 99 100 94 90 74 56 50 57 74 67 70 96 99 98 97 100 86 99 70 66 78 71 52 59 57 49 50 50 51 52 54 74 51 49 51 53 61 90 86 84 89 89 89
100 72 85 91 69 71 77 78 74 61 60 66 92 90 92 100 100 77 72 96 83 60 58 79 67 57 57 59 58 54 59 82 85 93 88 92 89 89 89 88 89 85 90 89
80 82 98 83 94 100 99 98 94 71 66 66 82 83 100 98 83 80 76 53 53 74 80 82 68 62 59 62 59 70 92 98 100 99 97 93 90 90 91 88 88 88 86 88
90 97 84 88 96 100 100 92 82 80 85 95 68 99 73 65 70 58 49 75 80 78 79 78 75 68 76 90 97 100 100 100 100 99 95 96 94 90 86 89 90 84 85 84